Location: Karcze
(52.0945°N, 22.4786°E)
Time: 12:04:34
(UTC+00:00)

Resurs 1-4 Rocket - Pass Details

Date: 14 July 2020
Orbit: 800 x 814 km, 98.6° (Epoch: 07 August)

Event Time Altitude Azimuth Distance (km) Brightness Sun altitude
Rises 01:19:43 0° 10° (N) 3,352 6.6 -8.1°
Reaches altitude 10° 01:22:13 10° 2° (N) 2,415 5.5 -7.8°
Maximum altitude 01:27:04 36° 298° (WNW) 1,260 3.0 -7.4°
Drops below altitude 10° 01:31:52 10° 233° (SW) 2,394 3.9 -6.9°
Enters shadow 01:32:21 - 231° (SW) 2,570 4.1 -6.9°
